Regional Weather Roundup
Issued by NWS Northern Indiana

Home | Current Version | Previous Version | Graphics & Text | Print | Product List | Glossary On
Versions: 1 2 3 4 5 6 7 8 9 10 11 12 13 14 15 16 17 18 19 20 21 22 23 24 25 26 27 28 29 30 31 32 33 34 35 36 37 38 39 40 41 42 43 44 45 46 47 48 49 50
000
ASUS43 KIWX 312110
RWRIWX

KIWX WEATHER ROUNDUP
NATIONAL WEATHER SERVICE NORTHERN INDIANA
500 PM EDT FRI OCT 31 2014

NOTE: "FAIR" INDICATES FEW OR NO CLOUDS BELOW 12,000 FEET WITH NO
SIGNIFICANT WEATHER AND/OR OBSTRUCTIONS TO VISIBILITY.

* THESE STATIONS ARE NOT UNDER NWS QUALITY CONTROL. THEY ALSO MAY NOT
  REPORT WEATHER SUCH AS PRECIPITATION OR FOG.

INZ001>027-312200-
NORTHERN INDIANA

CITY           SKY/WX    TMP DP  RH WIND       PRES   REMARKS
GARY*          RAIN      41  32  70 N37G67    30.18R
VALPARAISO     FLURRIES  38  35  89 N22G44    30.10R
MICHIGAN CITY* RAIN      36  36 100 N23G35    30.12R
LAPORTE*       LGT SNOW  35  35 100 NE13      30.11R WCI  26
KNOX*          CLOUDY    35  33  90 N23G29    30.09R WCI  23
SOUTH BEND     FOG       34  33  96 N23G33    30.10R VSB 3/4 WCI  22
ELKHART*       DRIZZLE   36  32  87 N14G23    30.07R
GOSHEN         LGT SNOW  35  33  92 N13       30.04R FOG     WCI  26
MONTICELLO*    CLOUDY    37  35  90 N20G32    30.05R
LOGANSPORT*    DRIZZLE   37  34  87 N24G32    30.03R
ROCHESTER*     LGT RAIN  37  36  93 N23G32    30.03R
WARSAW*        LGT RAIN  36  34  93 N14G26    30.02R
ANGOLA*          N/A     36  18  48 NE18      29.99R
FORT WAYNE     LGT RAIN  39  35  86 N24G32    29.95R
HUNTINGTON*    CLOUDY   N/A N/A N/A N18G26    29.96R
PERU/GRISSOM   LGT RAIN  39  39 100 N18G30    29.99R
MARION*        CLOUDY    40  36  83 N17G26    29.96R

$$
INZ028>050-312200-
CENTRAL INDIANA

CITY           SKY/WX    TMP DP  RH WIND       PRES   REMARKS
LAFAYETTE      LGT RAIN  35  33  92 N18G28    30.08R WCI  24
KOKOMO*        CLOUDY    39  34  81 N22G33    29.99R
MUNCIE*        CLOUDY    41  36  82 NW13      29.94R
INDIANAPOLIS   LGT RAIN  37  32  82 NW22G36   29.99S

$$
MIZ043>046-050>051-056>058-064>065-071>073-077>080-312200-
SOUTHWEST LOWER MICHIGAN

CITY           SKY/WX    TMP DP  RH WIND       PRES   REMARKS
BATTLE CREEK   LGT SNOW  36  31  82 N22G32    30.06R
BENTON HARBOR  CLOUDY    37  29  72 N13G30    30.12R
COLDWATER*     CLOUDY    37  33  85 N18G28    30.01R
HILLSDALE*     FLURRIES  37  35  94 N18G25    29.97R
HOLLAND        CLOUDY    37  29  72 N13G26    30.16R
GRAND RAPIDS   CLOUDY    37  28  70 N18G32    30.12R
KALAMAZOO      LGT SNOW  35  32  88 N15       30.07R FOG     WCI  25
STURGIS*       FLURRIES  36  34  93 N12G23    30.03R
THREE RIVERS*  DRIZZLE   37  33  87 N15G22    30.06R

$$
OHZ001>008-015>018-024>025-312200-
NORTHWEST OHIO

CITY           SKY/WX    TMP DP  RH WIND       PRES   REMARKS
WAUSEON*       LGT RAIN  39  37  93 N18G29    29.93R
DEFIANCE       LGT RAIN  40  36  86 N17G31    29.94R
FINDLAY        LGT RAIN  43  39  86 NW13      29.88R
TOLEDO EXPRESS LGT RAIN  40  37  89 N14G21    29.91R FOG
TOLEDO METCALF LGT RAIN  42  38  85 NW14      29.90R
LIMA           LGT RAIN  42  38  85 NW10      29.89S

$$
AND FOR LAKE MICHIGAN COASTAL AND OPEN LAKE BUOY OBSERVATIONS

STATION/POSITION TEMP    WIND        PRES    VSBY  WAVE
                 AIR SEA DIR/SP/G                  HT/PER
                 (F)     (DEG/KT/KT) (MB)    (MI)  (FT/S)
CALUMET HARBOR    39     340/ 29/ 40 1021.1R
MICHIGAN CITY     41     340/ 44/ 53   N/A
SAINT JOSEPH      40      10/ 22/ 37 1020.0R
SOUTH LAKE BUOY   39 47  340/ 33/ 39 1021.9R        16/11

$$
&&



USA.gov is the U.S. government's official web portal to all federal, state and local government web resources and services.